Location: Mohawk View
(42.7837°N, 73.7885°W)
Time: 02:22:26
(UTC+00:00)

USA 307 - Pass Details

Date: 17 June 2021
Orbit: 565 x 576 km, 54.0° (Epoch: 17 July)

Event Time Altitude Azimuth Distance (km) Brightness Sun altitude
Exits shadow 06:58:00 33° 168° (SSE) 970 3.7 -18.1°
Maximum altitude 06:59:03 39° 134° (SE) 864 3.6 -18.0°
Drops below altitude 10° 07:03:00 10° 65° (ENE) 1,866 6.3 -17.7°
Sets 07:05:21 0° 58° (ENE) 2,765 7.6 -17.4°
